When you browse on this site, cookies collect data to enhance your experience and personalize the content and advertising you see.
Visit our Privacy Policy to learn more. By continuing to use the site, you agree to this use of cookies and data.
  • In Schweiz
  • Länderverzeichnis
  • Für 7 Tage
  • Wassertemperatur
  • Wetterkarte
  • Widgets
  • user-avatar
    Anmelden

    Stündliche Wetter Veszprém

    Heute, 3 April, Freitag

    Zeit Temperatur Niederschläge Wind Luftdruck Luftfeuchtigkeit
    00:00 +2°C° 0 mm 2 m/S 736 mmHg 78%
    01:00 +3°C° 0 mm 1 m/S 736 mmHg 80%
    02:00 +3°C° 0 mm 1 m/S 736 mmHg 81%
    03:00 +2°C° 0 mm 1 m/S 736 mmHg 83%
    04:00 +2°C° 0 mm 1 m/S 736 mmHg 84%
    05:00 +3°C° 0 mm 1 m/S 736 mmHg 81%
    06:00 +4°C° 0 mm 1 m/S 737 mmHg 78%
    07:00 +5°C° 0 mm 1 m/S 737 mmHg 75%
    08:00 +7°C° 0 mm 1 m/S 737 mmHg 67%
    09:00 +8°C° 0 mm 2 m/S 738 mmHg 58%
    10:00 +10°C° 0 mm 2 m/S 738 mmHg 50%
    11:00 +11°C° 0 mm 3 m/S 738 mmHg 47%
    12:00 +12°C° 0 mm 3 m/S 738 mmHg 45%
    13:00 +13°C° 0 mm 4 m/S 738 mmHg 42%
    14:00 +13°C° 0 mm 4 m/S 738 mmHg 43%
    15:00 +13°C° 0 mm 4 m/S 738 mmHg 43%
    16:00 +13°C° 0 mm 4 m/S 737 mmHg 44%
    17:00 +11°C° 0 mm 3 m/S 738 mmHg 51%
    18:00 +9°C° 0 mm 2 m/S 738 mmHg 58%
    19:00 +9°C° 0 mm 1 m/S 738 mmHg 65%
    20:00 +8°C° 0 mm 1 m/S 739 mmHg 67%
    21:00 +8°C° 0 mm 1 m/S 740 mmHg 69%
    22:00 +7°C° 0 mm 1 m/S 740 mmHg 71%
    23:00 +7°C° 0 mm 1 m/S 741 mmHg 73%

    Morgen, 4 April, Samstag

    Zeit Temperatur Niederschläge Wind Luftdruck Luftfeuchtigkeit
    00:00 +6°C° 0 mm 1 m/S 741 mmHg 75%
    01:00 +5°C° 0 mm 2 m/S 741 mmHg 76%
    02:00 +5°C° 0 mm 2 m/S 742 mmHg 78%
    03:00 +4°C° 0 mm 2 m/S 742 mmHg 79%
    04:00 +4°C° 0 mm 2 m/S 742 mmHg 81%
    05:00 +4°C° 0 mm 3 m/S 742 mmHg 78%
    06:00 +5°C° 0 mm 3 m/S 743 mmHg 75%
    07:00 +5°C° 0 mm 4 m/S 744 mmHg 72%
    08:00 +7°C° 0 mm 4 m/S 744 mmHg 65%
    09:00 +10°C° 0 mm 4 m/S 744 mmHg 58%
    10:00 +10°C° 0 mm 5 m/S 744 mmHg 51%
    11:00 +12°C° 0 mm 5 m/S 744 mmHg 49%
    12:00 +13°C° 0 mm 4 m/S 745 mmHg 47%
    13:00 +13°C° 0 mm 4 m/S 745 mmHg 46%
    14:00 +13°C° 0 mm 4 m/S 745 mmHg 46%
    15:00 +13°C° 0 mm 4 m/S 744 mmHg 46%
    16:00 +13°C° 0 mm 4 m/S 744 mmHg 46%
    17:00 +11°C° 0 mm 4 m/S 745 mmHg 52%
    18:00 +10°C° 0 mm 3 m/S 745 mmHg 58%
    19:00 +8°C° 0 mm 2 m/S 745 mmHg 65%
    20:00 +8°C° 0 mm 2 m/S 746 mmHg 66%
    21:00 +7°C° 0 mm 2 m/S 747 mmHg 68%
    22:00 +7°C° 0 mm 1 m/S 747 mmHg 69%
    23:00 +6°C° 0 mm 2 m/S 747 mmHg 70%

    übermorgen, 5 April, Sonntag

    Zeit Temperatur Niederschläge Wind Luftdruck Luftfeuchtigkeit
    00:00 +6°C° 0 mm 2 m/S 748 mmHg 71%
    01:00 +4°C° 0 mm 3 m/S 748 mmHg 71%
    02:00 +4°C° 0 mm 3 m/S 748 mmHg 69%
    03:00 +3°C° 0 mm 3 m/S 748 mmHg 66%
    04:00 +3°C° 0 mm 3 m/S 749 mmHg 64%
    05:00 +4°C° 0 mm 3 m/S 749 mmHg 62%
    06:00 +4°C° 0 mm 3 m/S 749 mmHg 59%
    07:00 +5°C° 0 mm 3 m/S 749 mmHg 57%
    08:00 +7°C° 0 mm 4 m/S 750 mmHg 53%
    09:00 +8°C° 0 mm 4 m/S 750 mmHg 49%
    10:00 +11°C° 0 mm 4 m/S 750 mmHg 46%
    11:00 +12°C° 0 mm 4 m/S 750 mmHg 44%
    12:00 +13°C° 0 mm 4 m/S 750 mmHg 42%
    13:00 +14°C° 0 mm 4 m/S 749 mmHg 39%
    14:00 +14°C° 0 mm 4 m/S 749 mmHg 42%
    15:00 +14°C° 0 mm 4 m/S 749 mmHg 44%
    16:00 +14°C° 0 mm 4 m/S 748 mmHg 47%
    17:00 +12°C° 0 mm 3 m/S 748 mmHg 54%
    18:00 +11°C° 0 mm 3 m/S 749 mmHg 61%
    19:00 +9°C° 0 mm 3 m/S 749 mmHg 69%
    20:00 +9°C° 0 mm 3 m/S 749 mmHg 71%
    21:00 +8°C° 0 mm 3 m/S 750 mmHg 73%
    22:00 +7°C° 0 mm 4 m/S 750 mmHg 75%
    23:00 +7°C° 0 mm 3 m/S 750 mmHg 76%

    6 April, Montag

    Zeit Temperatur Niederschläge Wind Luftdruck Luftfeuchtigkeit
    00:00 +7°C° 0 mm 3 m/S 750 mmHg 78%
    01:00 +5°C° 0 mm 3 m/S 750 mmHg 79%
    02:00 +5°C° 0 mm 3 m/S 750 mmHg 81%
    03:00 +5°C° 0 mm 2 m/S 750 mmHg 82%
    04:00 +5°C° 0 mm 2 m/S 751 mmHg 84%
    05:00 +5°C° 0 mm 3 m/S 751 mmHg 75%
    06:00 +6°C° 0 mm 4 m/S 751 mmHg 67%
    07:00 +6°C° 0 mm 5 m/S 752 mmHg 59%
    08:00 +8°C° 0 mm 5 m/S 752 mmHg 54%
    09:00 +9°C° 0 mm 6 m/S 752 mmHg 48%
    10:00 +10°C° 0 mm 7 m/S 753 mmHg 43%
    11:00 +11°C° 0 mm 7 m/S 752 mmHg 40%
    12:00 +12°C° 0 mm 7 m/S 752 mmHg 37%
    13:00 +13°C° 0 mm 8 m/S 752 mmHg 34%
    14:00 +13°C° 0 mm 8 m/S 752 mmHg 34%
    15:00 +12°C° 0 mm 8 m/S 751 mmHg 35%
    16:00 +12°C° 0 mm 7 m/S 751 mmHg 36%
    17:00 +10°C° 0 mm 6 m/S 751 mmHg 40%
    18:00 +9°C° 0 mm 5 m/S 751 mmHg 44%
    19:00 +7°C° 0 mm 4 m/S 751 mmHg 48%
    20:00 +6°C° 0 mm 4 m/S 751 mmHg 48%
    21:00 +6°C° 0 mm 4 m/S 751 mmHg 48%
    22:00 +5°C° 0 mm 3 m/S 752 mmHg 48%
    23:00 +5°C° 0 mm 3 m/S 752 mmHg 48%

    7 April, Dienstag

    Zeit Temperatur Niederschläge Wind Luftdruck Luftfeuchtigkeit
    00:00 +4°C° 0 mm 4 m/S 752 mmHg 47%
    01:00 +3°C° 0 mm 4 m/S 752 mmHg 47%
    02:00 +3°C° 0 mm 4 m/S 752 mmHg 48%
    03:00 +1°C° 0 mm 4 m/S 752 mmHg 50%
    04:00 +1°C° 0 mm 4 m/S 752 mmHg 52%
    05:00 +3°C° 0 mm 4 m/S 752 mmHg 51%
    06:00 +3°C° 0 mm 4 m/S 752 mmHg 49%
    07:00 +3°C° 0 mm 5 m/S 753 mmHg 48%
    08:00 +6°C° 0 mm 5 m/S 753 mmHg 44%
    09:00 +7°C° 0 mm 5 m/S 753 mmHg 40%
    10:00 +9°C° 0 mm 6 m/S 753 mmHg 37%
    11:00 +10°C° 0 mm 6 m/S 753 mmHg 36%
    12:00 +12°C° 0 mm 5 m/S 753 mmHg 35%
    13:00 +14°C° 0 mm 5 m/S 753 mmHg 34%
    14:00 +14°C° 0 mm 5 m/S 753 mmHg 35%
    15:00 +14°C° 0 mm 4 m/S 752 mmHg 36%
    16:00 +14°C° 0 mm 4 m/S 752 mmHg 38%
    17:00 +12°C° 0 mm 3 m/S 752 mmHg 43%
    18:00 +10°C° 0 mm 2 m/S 752 mmHg 49%
    19:00 +9°C° 0 mm 1 m/S 752 mmHg 55%
    20:00 +9°C° 0 mm 1 m/S 752 mmHg 56%
    21:00 +8°C° 0 mm 1 m/S 753 mmHg 58%
    22:00 +7°C° 0 mm 1 m/S 753 mmHg 59%
    23:00 +6°C° 0 mm 0 m/S 753 mmHg 60%

    8 April, Mittwoch

    Zeit Temperatur Niederschläge Wind Luftdruck Luftfeuchtigkeit
    00:00 +6°C° 0 mm 0 m/S 753 mmHg 62%
    01:00 +5°C° 0 mm 0 m/S 753 mmHg 63%
    02:00 +5°C° 0 mm 0 m/S 753 mmHg 64%
    03:00 +5°C° 0 mm 0 m/S 753 mmHg 65%
    04:00 +5°C° 0 mm 0 m/S 753 mmHg 67%
    05:00 +6°C° 0 mm 0 m/S 753 mmHg 64%
    06:00 +7°C° 0 mm 0 m/S 753 mmHg 61%
    07:00 +8°C° 0 mm 0 m/S 753 mmHg 58%
    08:00 +11°C° 0 mm 1 m/S 753 mmHg 53%
    09:00 +13°C° 0 mm 1 m/S 753 mmHg 48%
    10:00 +14°C° 0 mm 1 m/S 753 mmHg 42%
    11:00 +15°C° 0 mm 1 m/S 753 mmHg 40%
    12:00 +16°C° 0 mm 1 m/S 753 mmHg 38%
    13:00 +17°C° 0 mm 2 m/S 752 mmHg 35%
    14:00 +17°C° 0 mm 2 m/S 752 mmHg 35%
    15:00 +17°C° 0 mm 2 m/S 751 mmHg 36%
    16:00 +17°C° 0 mm 2 m/S 751 mmHg 36%
    17:00 +15°C° 0 mm 1 m/S 751 mmHg 41%
    18:00 +13°C° 0 mm 1 m/S 750 mmHg 46%
    19:00 +11°C° 0 mm 1 m/S 750 mmHg 51%
    20:00 +11°C° 0 mm 1 m/S 750 mmHg 52%
    21:00 +10°C° 0 mm 1 m/S 750 mmHg 52%
    22:00 +10°C° 0 mm 1 m/S 750 mmHg 52%
    23:00 +9°C° 0 mm 1 m/S 750 mmHg 53%
    Mehr zeigen